Wind_Speed
77 81 76 76 72 58 54 65 63 62 62 59 57 55 56 56 47 42 40 38 38 34 32 31 31 30 31 29 30 29 25 23 24 23 23 21 21 19 17 17 19 19 18 20 20
81 75 81 74 77 75 58 65 64 64 63 64 60 58 56 56 60 48 42 41 39 37 35 34 33 32 32 30 30 29 26 25 25 27 26 25 23 21 18 18 19 21 22 21 23
59 74 77 77 73 76 76 71 64 61 64 64 65 61 58 57 59 59 50 46 40 39 37 38 36 34 34 34 32 31 28 28 28 29 30 29 26 24 19 19 21 21 23 24 25
41 54 64 75 71 75 70 74 70 69 62 61 64 62 62 58 57 53 60 51 47 41 39 40 39 38 37 37 36 34 33 33 31 32 33 33 31 27 24 19 23 23 23 27 26
41 42 54 62 75 72 73 69 69 71 68 64 61 61 61 59 59 56 54 56 56 54 49 43 42 43 41 40 39 39 37 36 35 35 35 36 35 31 29 22 25 25 24 27 26
44 44 41 54 63 66 69 71 69 65 67 71 65 60 61 59 56 55 53 52 55 52 55 53 46 44 43 42 42 40 40 39 38 37 37 36 37 35 31 28 27 29 27 27 28
54 44 38 39 59 57 66 64 72 68 65 62 64 66 59 56 58 56 54 52 49 49 50 49 51 48 45 43 42 40 40 41 40 38 40 38 38 35 34 33 32 32 31 29 30
49 47 41 41 38 49 50 69 67 64 67 64 63 62 65 62 60 57 54 52 50 48 47 47 51 50 52 49 45 42 42 43 39 39 39 41 38 35 36 35 35 36 34 32 31
50 47 50 44 38 36 48 50 63 68 62 67 63 65 62 64 59 56 51 51 51 49 46 47 45 46 46 49 47 43 44 43 39 40 41 43 41 35 38 37 36 37 36 35 34
61 54 49 50 48 37 38 46 51 63 73 65 61 66 66 57 56 57 58 52 50 48 50 48 43 45 44 37 36 36 42 41 45 44 43 42 40 36 39 39 40 39 38 38 37
56 65 52 47 46 42 39 43 57 57 59 66 70 65 66 65 63 63 57 58 56 51 50 50 51 39 41 45 47 47 46 44 38 42 49 47 42 35 39 40 38 38 39 40 41
80 57 56 51 50 47 44 44 42 44 51 57 69 66 69 60 56 57 61 55 53 53 54 52 44 42 40 42 47 41 38 38 39 43 47 46 48 38 38 40 37 39 42 42 43
81 73 61 58 48 55 47 48 44 44 53 52 54 56 62 61 57 51 51 48 48 47 45 44 44 46 46 44 43 41 40 41 40 40 41 46 52 45 39 39 38 36 41 44 45
76 77 65 64 53 59 54 46 42 40 45 52 53 51 49 57 54 54 51 52 48 46 45 45 43 42 43 43 43 42 41 41 39 39 40 39 42 40 42 39 38 36 38 43 46
58 77 70 68 65 53 56 52 44 43 50 54 48 44 48 52 55 54 56 54 51 49 46 43 41 42 42 39 41 41 41 42 42 42 42 40 42 34 38 40 39 40 40 41 46
46 59 79 71 70 56 53 53 51 55 63 54 50 49 47 44 49 55 54 51 49 50 50 50 49 47 45 43 43 44 42 43 45 43 43 38 37 43 32 37 40 40 40 42 44
48 47 74 74 69 66 53 56 60 67 61 56 48 46 44 45 42 46 49 52 52 50 48 48 49 47 45 45 46 45 43 45 47 47 45 44 39 40 38 33 34 39 41 42 42
50 45 62 80 72 64 54 55 69 67 63 56 47 43 45 43 46 41 40 44 46 45 45 46 47 46 47 48 47 46 46 48 50 50 49 47 46 43 39 37 37 37 38 38 41
52 48 51 75 76 68 58 61 72 71 64 57 55 49 43 44 42 42 39 38 37 37 39 43 46 45 45 46 49 50 52 50 51 53 53 52 50 47 44 41 39 39 41 41 45
50 51 45 61 83 72 66 64 68 64 58 59 57 54 45 41 44 44 44 41 40 39 40 41 41 41 42 43 45 48 49 51 54 55 56 56 53 52 50 47 45 43 42 47 44
50 51 45 53 61 67 73 67 63 50 68 65 55 50 46 41 39 44 45 47 43 42 40 41 40 39 38 39 40 42 44 46 47 50 54 56 56 54 52 49 48 47 43 41 44
44 48 47 50 60 61 78 61 48 29 62 60 54 50 43 38 37 32 37 40 41 39 34 32 33 33 33 33 36 38 40 44 48 50 52 55 55 55 54 50 47 44 42 40 41
44 44 48 48 55 60 87 62 61 27 58 61 51 52 47 45 37 34 34 33 38 39 37 37 37 36 35 35 35 34 35 39 43 46 48 54 54 54 53 51 48 48 48 49 51
45 48 51 53 47 52 79 69 50 43 50 56 54 47 51 46 41 36 32 33 37 38 39 39 38 38 39 39 36 35 34 36 39 41 44 46 47 50 52 53 55 55 53 52 53
50 50 47 52 45 47 57 76 59 48 59 59 58 50 48 45 38 36 36 34 34 35 36 38 37 37 37 37 40 40 39 38 37 39 44 43 44 45 49 51 53 54 51 52 56
50 48 44 48 46 43 54 76 69 41 56 61 57 49 47 42 34 29 26 31 35 34 32 32 32 33 36 38 41 42 41 40 38 40 41 44 43 42 42 45 52 50 52 54 52
45 43 40 45 43 43 43 66 67 53 41 46 48 55 46 38 35 33 33 29 29 35 31 30 31 32 34 36 38 40 40 40 37 36 35 35 31 35 39 40 42 45 47 44 44
Wind_Direction
222 216 219 220 224 221 225 227 229 227 223 223 222 225 228 226 230 226 225 222 225 227 226 228 229 229 232 234 238 242 244 245 245 246 248 253 258 259 259 261 257 245 237 236 238
223 221 216 220 220 222 218 226 226 230 228 224 224 224 225 229 229 228 226 224 223 226 230 230 231 233 234 236 240 242 244 247 248 252 255 255 257 256 256 251 254 243 240 235 238
235 223 220 218 220 221 223 227 227 227 230 230 225 225 226 227 229 227 228 227 227 229 229 232 233 235 239 239 240 245 247 251 253 257 261 262 260 256 256 252 250 244 241 239 238
229 233 225 218 222 220 224 225 226 228 229 231 231 229 230 230 232 233 229 235 235 231 234 235 235 237 239 242 244 247 248 251 255 258 263 267 267 261 261 253 253 245 238 241 238
218 232 235 225 220 221 223 226 227 226 228 230 230 230 230 231 234 234 235 233 237 241 237 238 237 239 239 241 244 246 248 251 253 256 260 265 269 268 266 260 254 248 241 242 243
204 217 228 229 226 222 220 226 225 226 228 229 232 227 229 230 231 233 234 237 239 238 235 237 236 239 241 242 244 246 249 252 254 256 258 261 266 266 268 266 259 255 247 246 246
205 204 223 225 230 224 222 223 226 225 227 228 231 233 230 232 232 233 232 233 235 237 236 235 235 240 242 243 244 248 251 255 257 258 261 263 260 270 267 264 263 262 256 254 253
208 207 200 222 225 230 224 222 220 223 227 225 229 230 232 234 234 236 237 236 238 239 238 237 235 241 244 245 246 248 251 254 259 262 263 264 261 264 266 264 259 261 260 257 258
213 209 199 212 218 227 226 226 228 222 223 223 227 229 231 231 233 234 236 238 240 240 242 244 240 238 243 244 248 249 254 254 256 258 261 261 261 264 264 265 259 256 261 260 260
208 218 206 213 217 224 224 225 228 228 222 219 224 225 226 224 229 233 236 236 238 238 243 242 245 247 245 244 252 254 253 255 252 251 255 259 265 265 265 265 263 258 258 261 260
206 214 212 207 213 215 224 222 227 226 232 228 228 225 226 230 234 234 233 235 236 238 239 244 239 252 250 250 246 246 250 252 253 253 253 257 260 261 260 262 266 261 257 256 258
222 207 206 205 210 203 211 217 228 225 234 236 233 231 231 227 228 229 232 236 236 238 237 240 241 242 247 248 256 257 259 266 260 255 257 253 252 257 259 256 256 257 255 254 255
219 212 202 204 199 206 208 215 222 224 233 239 235 232 236 235 232 229 226 229 231 231 230 232 234 238 241 246 248 253 257 264 258 260 260 257 252 251 256 256 253 255 256 255 253
218 214 197 202 197 211 204 214 214 226 227 224 237 232 232 234 234 226 225 224 228 231 231 231 231 234 237 241 243 249 254 258 263 261 262 260 260 251 252 257 256 254 252 255 255
220 220 205 202 203 200 203 204 216 217 226 224 227 222 225 231 227 227 225 226 224 229 233 236 237 236 239 244 246 246 246 253 259 265 266 262 264 254 251 254 259 260 259 253 256
218 220 216 206 207 195 204 206 215 218 220 226 225 225 224 226 223 224 228 230 228 229 232 235 237 237 240 243 244 245 246 252 258 267 268 268 270 264 260 253 256 259 260 259 254
218 217 217 202 198 197 194 199 210 218 220 223 226 224 226 226 224 223 227 231 233 236 237 239 238 238 239 243 246 248 249 255 260 264 268 269 265 267 270 259 257 260 260 259 259
217 220 212 207 196 196 192 203 207 218 222 220 222 222 224 225 222 221 227 229 231 231 229 233 237 240 243 244 247 248 250 253 257 261 265 266 267 268 269 271 264 262 262 261 258
217 217 213 211 201 206 202 204 205 212 220 223 220 219 220 220 220 226 228 223 228 228 234 239 240 238 240 241 244 247 250 254 257 262 266 266 266 268 270 274 275 267 264 267 263
217 216 213 214 211 202 199 204 206 209 212 217 223 221 220 223 226 228 231 228 230 232 233 235 236 236 238 242 245 248 251 254 257 260 263 265 267 269 270 271 272 272 268 262 267
213 214 213 208 214 223 208 198 200 204 217 219 222 222 219 221 225 225 229 232 229 229 234 236 234 235 239 244 248 251 254 257 257 257 260 263 264 267 269 269 268 268 270 271 268
209 212 212 214 216 216 210 195 192 216 216 215 216 217 214 215 218 226 226 225 224 225 227 231 230 236 239 241 243 246 248 252 255 257 257 260 262 266 268 268 268 268 269 269 267
214 213 212 215 216 220 216 202 196 206 215 215 216 215 213 213 211 216 215 214 220 223 229 226 231 235 239 243 250 255 257 257 259 261 264 260 264 263 266 269 272 273 272 270 268
219 219 216 216 220 223 222 205 198 197 207 214 212 214 217 218 210 213 216 219 222 229 228 228 231 237 243 247 248 253 253 254 255 258 259 261 262 263 266 266 266 266 268 273 277
223 226 225 219 219 226 223 213 202 199 207 210 210 212 215 218 215 214 216 218 221 225 227 231 236 242 247 249 251 253 257 258 259 259 259 259 257 260 261 264 267 269 271 269 270
222 226 226 221 221 222 229 220 203 190 203 215 208 211 214 214 217 222 237 242 239 236 236 237 240 243 245 247 250 254 255 255 252 253 257 260 263 263 267 266 264 267 268 271 274
217 220 217 218 219 222 228 223 217 200 191 195 204 213 212 210 218 229 239 232 232 233 236 241 243 244 247 250 251 251 256 259 261 259 262 261 267 262 259 265 271 270 270 273 272
Height
5659 5670 5681 5691 5699 5709 5715 5723 5731 5738 5745 5751 5758 5765 5772 5778 5785 5791 5797 5802 5808 5811 5815 5819 5822 5825 5828 5830 5833 5835 5840 5843 5845 5847 5849 5851 5853 5856 5858 5858 5859 5860 5862 5865 5867
5646 5656 5667 5677 5688 5697 5704 5712 5721 5730 5736 5743 5749 5756 5763 5770 5777 5784 5790 5794 5800 5805 5809 5813 5817 5820 5824 5826 5829 5831 5836 5838 5842 5842 5845 5847 5850 5853 5855 5856 5856 5856 5858 5860 5863
5637 5645 5653 5663 5674 5684 5693 5702 5710 5719 5727 5733 5740 5748 5754 5762 5768 5776 5781 5787 5793 5799 5803 5808 5811 5814 5818 5821 5824 5827 5832 5833 5838 5839 5840 5842 5845 5848 5851 5853 5853 5854 5855 5856 5859
5629 5635 5643 5651 5662 5671 5680 5691 5699 5709 5717 5724 5732 5739 5747 5754 5761 5768 5774 5781 5787 5793 5797 5802 5805 5808 5813 5816 5820 5823 5826 5828 5833 5835 5836 5837 5839 5842 5845 5849 5848 5851 5852 5852 5855
5622 5629 5635 5642 5650 5660 5670 5679 5688 5698 5707 5715 5722 5729 5737 5745 5753 5760 5765 5772 5778 5783 5790 5795 5799 5803 5806 5810 5814 5817 5821 5823 5827 5830 5832 5833 5835 5837 5840 5844 5845 5846 5849 5849 5851
5614 5620 5627 5635 5642 5649 5658 5668 5676 5686 5695 5703 5711 5720 5728 5737 5743 5749 5758 5764 5770 5775 5781 5786 5792 5796 5800 5804 5807 5811 5815 5817 5821 5824 5827 5829 5830 5832 5836 5838 5840 5841 5844 5845 5847
5605 5615 5621 5627 5634 5642 5650 5658 5667 5675 5685 5693 5702 5710 5718 5728 5733 5740 5748 5755 5760 5766 5772 5777 5783 5788 5793 5797 5800 5804 5808 5811 5815 5818 5820 5823 5825 5829 5830 5832 5834 5835 5838 5840 5841
5598 5605 5614 5620 5627 5635 5643 5649 5655 5664 5674 5684 5693 5701 5709 5717 5724 5732 5739 5746 5752 5757 5763 5769 5775 5780 5785 5790 5794 5797 5800 5804 5810 5813 5814 5815 5819 5823 5823 5825 5827 5828 5831 5834 5835
5589 5596 5605 5615 5622 5629 5637 5643 5647 5654 5664 5674 5683 5693 5701 5710 5717 5723 5731 5737 5744 5750 5755 5760 5766 5772 5777 5782 5787 5789 5793 5799 5802 5805 5805 5807 5810 5816 5816 5818 5820 5822 5824 5827 5830
5578 5588 5598 5607 5617 5624 5631 5637 5641 5644 5653 5662 5674 5683 5692 5701 5707 5715 5722 5729 5737 5742 5748 5753 5758 5764 5770 5775 5780 5783 5786 5789 5792 5797 5798 5801 5803 5808 5808 5811 5813 5815 5818 5820 5822
5567 5579 5590 5598 5609 5617 5625 5630 5632 5639 5644 5658 5669 5674 5682 5691 5698 5706 5713 5720 5727 5735 5741 5746 5752 5759 5764 5766 5770 5774 5777 5781 5783 5786 5790 5794 5796 5799 5800 5802 5805 5807 5809 5811 5812
5557 5569 5580 5593 5600 5609 5614 5621 5628 5638 5641 5646 5656 5665 5672 5680 5688 5694 5704 5712 5719 5727 5734 5740 5746 5751 5755 5759 5762 5765 5770 5774 5775 5778 5779 5781 5786 5791 5791 5793 5796 5797 5799 5801 5803
5545 5558 5570 5584 5590 5598 5603 5616 5624 5630 5634 5639 5646 5656 5664 5671 5679 5685 5695 5703 5711 5717 5724 5731 5737 5741 5746 5750 5754 5758 5762 5764 5767 5768 5769 5772 5775 5781 5784 5785 5787 5790 5791 5793 5795
5533 5545 5557 5572 5578 5588 5597 5606 5616 5624 5627 5631 5635 5646 5653 5661 5671 5679 5686 5695 5702 5709 5715 5720 5727 5732 5737 5742 5746 5749 5754 5756 5758 5759 5761 5764 5764 5773 5776 5777 5779 5780 5782 5783 5785
5521 5532 5543 5555 5571 5579 5596 5602 5608 5614 5612 5621 5628 5635 5645 5654 5664 5671 5680 5685 5694 5702 5709 5715 5719 5725 5730 5735 5736 5741 5744 5747 5749 5752 5752 5755 5756 5764 5767 5769 5770 5771 5773 5774 5776
5512 5519 5530 5545 5562 5575 5583 5594 5600 5600 5595 5606 5620 5628 5638 5646 5653 5662 5670 5679 5686 5693 5700 5705 5711 5716 5721 5724 5727 5731 5735 5739 5742 5745 5745 5750 5751 5749 5760 5761 5761 5762 5763 5765 5766
5503 5510 5522 5536 5558 5565 5574 5581 5583 5579 5589 5602 5614 5624 5632 5640 5645 5653 5662 5670 5679 5686 5692 5697 5703 5709 5714 5717 5720 5725 5731 5732 5734 5735 5737 5739 5744 5744 5745 5750 5753 5753 5754 5756 5757
5493 5501 5513 5528 5541 5552 5560 5566 5564 5570 5586 5599 5610 5616 5624 5632 5639 5648 5655 5663 5670 5676 5683 5687 5694 5701 5707 5710 5715 5718 5721 5723 5723 5725 5728 5730 5733 5736 5737 5739 5744 5745 5745 5747 5748
5485 5494 5506 5518 5528 5538 5546 5547 5556 5565 5581 5593 5600 5606 5616 5625 5635 5642 5649 5658 5664 5670 5676 5681 5685 5692 5696 5700 5705 5708 5709 5715 5716 5716 5718 5720 5724 5727 5729 5731 5732 5735 5737 5736 5737
5478 5488 5499 5505 5514 5524 5528 5537 5547 5559 5571 5582 5591 5602 5613 5621 5628 5634 5641 5652 5658 5662 5666 5671 5676 5680 5685 5690 5694 5697 5702 5704 5705 5707 5709 5711 5715 5718 5720 5721 5721 5723 5724 5725 5727
5471 5480 5491 5494 5500 5504 5511 5527 5543 5555 5565 5574 5587 5597 5608 5617 5623 5629 5636 5643 5649 5654 5658 5663 5669 5674 5677 5682 5686 5689 5691 5695 5698 5699 5699 5701 5705 5707 5709 5711 5711 5711 5713 5716 5718
5466 5477 5482 5487 5493 5494 5505 5523 5538 5549 5556 5570 5581 5592 5603 5611 5617 5622 5629 5635 5642 5646 5651 5657 5661 5666 5670 5673 5675 5677 5681 5683 5684 5689 5691 5692 5695 5696 5697 5700 5701 5702 5702 5703 5705
5461 5468 5475 5477 5482 5491 5501 5519 5531 5540 5551 5565 5576 5585 5596 5602 5608 5615 5621 5627 5631 5637 5644 5650 5653 5657 5660 5666 5667 5669 5673 5675 5677 5680 5682 5682 5686 5685 5686 5688 5690 5690 5691 5692 5693
5452 5456 5463 5467 5479 5487 5496 5511 5522 5534 5544 5557 5569 5578 5586 5593 5601 5610 5615 5621 5626 5631 5636 5640 5645 5650 5655 5657 5661 5662 5664 5666 5668 5669 5670 5673 5675 5677 5676 5677 5676 5677 5681 5683 5685
5443 5449 5460 5467 5479 5486 5490 5502 5516 5524 5537 5547 5558 5570 5581 5590 5597 5604 5610 5616 5620 5625 5629 5634 5639 5643 5646 5649 5652 5655 5657 5657 5659 5662 5659 5664 5664 5666 5666 5665 5666 5667 5668 5668 5670
5437 5444 5454 5464 5472 5478 5483 5496 5508 5520 5532 5544 5560 5570 5577 5586 5597 5606 5611 5614 5617 5621 5625 5629 5633 5635 5637 5640 5642 5645 5650 5649 5649 5649 5650 5652 5655 5657 5657 5656 5654 5659 5657 5658 5659
5429 5438 5447 5455 5465 5471 5478 5491 5505 5520 5528 5542 5554 5563 5575 5586 5592 5598 5600 5603 5607 5612 5617 5621 5625 5628 5630 5632 5633 5637 5641 5641 5642 5642 5644 5645 5650 5647 5644 5644 5645 5645 5646 5648 5646